Lexington Weather

Lexington, Massachusetts, USA

70°F
8/17/2022 6:22pm 
  • Lexington Conditions: Overcast
  • Temperature: 70.0°F / 21.1°CColder 0.5°F than last hour.
  • Dew Point: 59.0°FIncreased 0.9°Fsince last hour.
  • Relative Humidity: 68%Increased 3.0% since last hour.
  • Wind: Calm, 10-min avg: Calm, gust: None
  • Barometer: 29.85 inFalling 0.02  inHg/hr Falling Slowly
  • Visibility: 10 miles
  • Rain Today: 0.00 in
  •   

Regional Weather Roundup
for Boston, MA

        
000
ASUS41 KBOX 162010
RWRBOX

REGIONAL WEATHER ROUNDUP
NATIONAL WEATHER SERVICE BOSTON/NORTON MA
400 PM EDT TUE AUG 16 2022

NOTE:  "FAIR" INDICATES FEW OR NO CLOUDS BELOW 12,000 FEET WITH NO 
SIGNIFICANT WEATHER AND/OR OBSTRUCTIONS TO VISIBILITY.

MAZALL-162100-
EASTERN MASSACHUSETTS
  
CITY           SKY/WX    TMP DP  RH WIND       PRES   REMARKS
BOSTON         CLOUDY    75  60  59 NE12      30.04F                  
BEVERLY        PTSUNNY   77  59  53 NE10      30.04F                  
LAWRENCE       PTSUNNY   79  56  45 NE14G20   30.07S                  
BEDFORD        PTSUNNY   79  55  43 NE12G22   30.03F                  
BLUE HILL      NOT AVBL                                               
NORWOOD        PTSUNNY   78  32  18 NE15      30.03F                  
MARSHFIELD     PTSUNNY   72  63  73 NE9       30.04S                  
PLYMOUTH       PTSUNNY   70  63  78 NE17G24   30.03F                  
TAUNTON          N/A    N/A N/A N/A MISG      30.02S                  
NEW BEDFORD    CLOUDY    74  58  57 NE14      30.01S                  
$$

MAZALL-162100-
CAPE COD AND THE ISLANDS
  
CITY           SKY/WX    TMP DP  RH WIND       PRES   REMARKS
FALMOUTH       MOSUNNY   72  63  73 NE21      30.02S                  
HYANNIS        CLOUDY    74  63  68 NE15      30.00S                  
CHATHAM        CLOUDY    71  62  73 NE9       30.02S                  
NANTUCKET      LGT RAIN  69  65  86 NE12      30.00S                  
MARTHAS VNYRD  CLOUDY    74  63  68 NE12      30.00S                  
$$
 
MAZALL-162100-
CENTRAL AND WESTERN MASSACHUSETTS
  
CITY           SKY/WX    TMP DP  RH WIND       PRES   REMARKS
WORCESTER      PTSUNNY   76  52  43 NE10G20   30.06F                  
FITCHBURG      MOSUNNY   81  47  30 E10G21    30.05F                  
ORANGE         MOSUNNY   83  47  28 E15G21    30.04F                  
SPRINGFIELD    PTSUNNY   82  47  28 NE9       29.98F                  
WESTFIELD      MOSUNNY   84  49  29 NE9G22    30.00F                  
NORTH ADAMS    MOSUNNY   82  51  34 NE8       30.03F                  
PITTSFIELD     MOSUNNY   81  49  32 VRB5      30.03F                  
$$
 
RIZALL-162100-
RHODE ISLAND
  
CITY           SKY/WX    TMP DP  RH WIND       PRES   REMARKS
PROVIDENCE     CLOUDY    79  56  45 NE15G22   30.02S                  
NEWPORT        CLOUDY    75  58  55 NE14      30.01S                  
BLOCK ISLAND   CLOUDY    72  64  76 NE10G18   30.01S                  
SMITHFIELD     PTSUNNY   79  52  38 NE12G20   30.04S                  
WESTERLY       CLOUDY    80  56  43 E15G22    29.99S                  
$$
 
CTZALL-162100-
CONNECTICUT
  
CITY           SKY/WX    TMP DP  RH WIND       PRES   REMARKS
BRADLEY INTL   PTSUNNY   84  51  31 NE7       30.00F                  
HARTFORD       CLOUDY    83  50  31 E9        29.98F                  
BRIDGEPORT     MOSUNNY   79  61  53 E12       29.98F                  
DANBURY        MOSUNNY   86  49  27 NE12G21   30.01F                  
GROTON         CLOUDY    84  53  34 E16       29.98S                  
NEW HAVEN      MOSUNNY   81  63  54 SE9       29.99F                  
CHESTER        FAIR      84  48  28 NE10      30.00S                  
MERIDEN        PTSUNNY   84  49  29 NE12G22   29.98F                  
WILLIMANTIC    PTSUNNY   81  48  31 E13       30.00F                  
OXFORD         MOSUNNY   81  50  33 E12G18    30.02F                  
$$

MEZ002-015-021-024-NHZ003-005-008-011-012-014-VTZ005-008-162100-
NORTHERN NEW ENGLAND
  
CITY           SKY/WX    TMP DP  RH WIND       PRES   REMARKS
PORTLAND ME    PTSUNNY   76  56  49 E13       30.08S                  
BANGOR ME      PTSUNNY   85  56  37 NE9       30.07F                  
CONCORD NH     MOSUNNY   83  48  29 E10G21    30.05F                  
MANCHESTER NH  PTSUNNY   83  52  34 E10G20    30.04S                  
NASHUA NH      PTSUNNY   83  53  35 E10G16    30.05F                  
PORTSMOUTH NH  PTSUNNY   78  53  41 NE13      30.06S                  
JAFFREY NH     MOSUNNY   83  48  29 VRB5      30.07F                  
KEENE NH       MOSUNNY   82  55  39 N9G17       N/A                   
BURLINGTON VT  PTSUNNY   81  60  48 N9        30.06F                  
MT. WASHINGTON PTSUNNY   52  46  82 E21         N/A                   
$$

NYZ052-076-162100-
EASTERN NEW YORK
  
CITY           SKY/WX    TMP DP  RH WIND       PRES   REMARKS
ALBANY         PTSUNNY   86  52  30 NE9G17    30.01F                  
NEW YORK CITY  PTSUNNY   83  49  30 NE10      29.98F                  
$$
 
ANZALL-162100-
MARINE OBSERVATIONS
  
STATION/POSITION TIME  TEMP    WIND        PRES    VSBY  WAVE
                       AIR SEA DIR/SP/G                  HT/PER
                 (UTC) (F)     (DEG/KT/KT) (MB)    (MI)  (FT/S)
BOSTON BUOY      NOT AVBL
BUZZARDS BAY     NOT AVBL
NANTUCKET SOUND  NOT AVBL
MASS BAY-STELLWA NOT AVBL
ISLE OF SHOALS   NOT AVBL
S OF BLOCK IS    NOT AVBL
$$

......................KEY.........................
  SKY/WX - SKY CONDITION/PRESENT WEATHER
  TMP    - TEMPERATURE IN FAHRENHEIT
  DWPT   - DEWPOINT IN FAHRENHEIT
  RH     - RELATIVE HUMIDITY IN PERCENT
  WIND   - DIRECTION AND SPEED IN MPH
  PRES   - MEAN SEA LEVEL PRESSURE IN INCHES OF HG
  WCI    - WIND CHILL INDEX
  VSB    - VISIBILITY IN MILES
  HX     - HEAT INDEX
  TC     - TEMPERATURE IN CELSIUS
  VRB    - VARIABLE WIND DIRECTION
  N/A    - NOT AVAILABLE
  
      

Other recent Regional Weather Roundups

Wed Aug 17, 5:10pm

Wed Aug 17, 4:10pm

Wed Aug 17, 3:10pm

Wed Aug 17, 2:10pm

Wed Aug 17, 1:10pm

Wed Aug 17, 12:10pm

Wed Aug 17, 11:10am

Wed Aug 17, 10:10am

Wed Aug 17, 9:10am

Wed Aug 17, 8:10am

Wed Aug 17, 7:10am

Wed Aug 17, 6:10am

Wed Aug 17, 5:10am

Wed Aug 17, 4:10am

Wed Aug 17, 3:10am

Wed Aug 17, 2:10am

Wed Aug 17, 1:10am

Wed Aug 17, 12:10am

Tue Aug 16, 11:10pm

Tue Aug 16, 10:10pm

Tue Aug 16, 9:10pm

Tue Aug 16, 8:10pm

Tue Aug 16, 7:10pm

Tue Aug 16, 6:10pm

Tue Aug 16, 5:10pm

Tue Aug 16, 3:10pm

Tue Aug 16, 2:10pm

Tue Aug 16, 1:10pm

Tue Aug 16, 12:10pm

Tue Aug 16, 11:10am

Tue Aug 16, 10:10am

Tue Aug 16, 9:10am

Tue Aug 16, 8:10am

Tue Aug 16, 7:10am

Tue Aug 16, 6:10am

Tue Aug 16, 5:10am

Tue Aug 16, 4:10am

Tue Aug 16, 3:10am

Tue Aug 16, 2:10am

Tue Aug 16, 1:10am

Tue Aug 16, 12:10am

Mon Aug 15, 11:10pm

Mon Aug 15, 10:10pm

Mon Aug 15, 9:10pm

Mon Aug 15, 8:10pm

Mon Aug 15, 7:10pm

Mon Aug 15, 6:10pm

Mon Aug 15, 5:10pm

Mon Aug 15, 4:10pm

Mon Aug 15, 3:10pm

Mon Aug 15, 2:10pm

Mon Aug 15, 1:10pm

Mon Aug 15, 12:10pm

Mon Aug 15, 11:10am

Mon Aug 15, 10:10am

Mon Aug 15, 9:10am

Mon Aug 15, 8:10am

Mon Aug 15, 7:10am

Mon Aug 15, 6:10am

Mon Aug 15, 5:10am

Mon Aug 15, 4:10am

Mon Aug 15, 3:10am

Mon Aug 15, 2:10am

Mon Aug 15, 1:10am

Mon Aug 15, 12:10am

Sun Aug 14, 11:10pm

Sun Aug 14, 10:10pm

Sun Aug 14, 9:10pm

Sun Aug 14, 8:10pm

Sun Aug 14, 7:10pm

Sun Aug 14, 6:10pm

Sun Aug 14, 5:10pm

Sun Aug 14, 4:10pm

Sun Aug 14, 3:10pm

Sun Aug 14, 2:10pm

Sun Aug 14, 1:10pm

Sun Aug 14, 12:10pm

Sun Aug 14, 11:10am

Sun Aug 14, 10:10am

Sun Aug 14, 9:10am

Sun Aug 14, 8:10am

Sun Aug 14, 7:10am

Sun Aug 14, 6:10am

Sun Aug 14, 5:10am

Sun Aug 14, 4:10am

Sun Aug 14, 3:10am

Sun Aug 14, 2:10am

Sun Aug 14, 1:10am

Sun Aug 14, 12:10am

Sat Aug 13, 11:10pm

Sat Aug 13, 10:10pm

Sat Aug 13, 9:10pm

Sat Aug 13, 8:10pm

Sat Aug 13, 7:10pm

Sat Aug 13, 6:10pm

Sat Aug 13, 5:10pm

Sat Aug 13, 4:10pm

Sat Aug 13, 3:10pm

Sat Aug 13, 2:10pm

Sat Aug 13, 1:10pm

Sat Aug 13, 12:10pm

Sat Aug 13, 11:10am

Sat Aug 13, 10:10am

Sat Aug 13, 9:10am

Sat Aug 13, 8:10am

Sat Aug 13, 7:10am

Sat Aug 13, 6:10am

Sat Aug 13, 5:10am

Sat Aug 13, 4:10am

Sat Aug 13, 3:10am

Sat Aug 13, 2:10am

Sat Aug 13, 1:10am

Sat Aug 13, 12:10am

Fri Aug 12, 11:10pm

Fri Aug 12, 10:10pm

Fri Aug 12, 9:10pm

Fri Aug 12, 8:10pm

Fri Aug 12, 7:10pm

Fri Aug 12, 6:10pm

Fri Aug 12, 5:10pm

Fri Aug 12, 4:10pm

Fri Aug 12, 3:10pm

Fri Aug 12, 2:10pm

Fri Aug 12, 1:10pm

Fri Aug 12, 12:10pm

Fri Aug 12, 11:10am

Fri Aug 12, 10:10am

Fri Aug 12, 9:10am

Fri Aug 12, 8:10am

Fri Aug 12, 7:10am

Fri Aug 12, 6:10am

Fri Aug 12, 5:10am

Fri Aug 12, 4:10am

Fri Aug 12, 3:10am

Fri Aug 12, 2:10am

Fri Aug 12, 1:10am

Fri Aug 12, 12:10am

Thu Aug 11, 11:10pm

Thu Aug 11, 10:10pm

Thu Aug 11, 9:10pm

Thu Aug 11, 8:10pm

Thu Aug 11, 7:10pm

Thu Aug 11, 6:10pm

Thu Aug 11, 5:10pm

Thu Aug 11, 4:10pm

Thu Aug 11, 3:10pm

Thu Aug 11, 2:10pm

Thu Aug 11, 1:10pm

Thu Aug 11, 12:10pm

Thu Aug 11, 11:10am

Thu Aug 11, 10:10am

Thu Aug 11, 9:10am

Thu Aug 11, 8:10am

Thu Aug 11, 7:10am

Thu Aug 11, 6:10am

Thu Aug 11, 5:10am

Thu Aug 11, 4:10am

Thu Aug 11, 3:10am

Thu Aug 11, 2:10am

Thu Aug 11, 1:10am

Thu Aug 11, 12:10am

Wed Aug 10, 11:10pm

Wed Aug 10, 10:10pm

Wed Aug 10, 9:10pm

Wed Aug 10, 8:10pm

Wed Aug 10, 7:10pm

Wed Aug 10, 6:10pm

Meta data:

ID: 4f7037c6-d5e7-402e-97b0-4011a15ebedf
Link: https://api.weather.gov/products/4f7037c6-d5e7-402e-97b0-4011a15ebedf